KCTJ

Details ICAO KCTJ (CTJ)
Name WEST GEORGIA RGNL O V GRAY FLD
Region United States
Timezone America/New_York (UTC-4.0)
Plans Departing 2
Arriving 5
Stats Elevation 1,161 ft / 354 m (AMSL)
Location 33.631893° -85.152332°
Runways 1
Magnetic Variation 4.633° W
Sunrise 2018-05-27 10:34:34 UTC / 2018-05-27 06:34:34 Local
Sunset 2018-05-28 00:43:53 UTC / 2018-05-27 20:43:53 Local
Advertisement - Login to hide

Runways

ID Width Length Bearing (true) Bearing (mag) Surface Threshold Offset Overrun Length
17 100 ft / 30 m 5,667 ft / 1,727 m 163.91° 168.54° Asphalt 0 ft / 0 m 0 ft / 0 m
35 100 ft / 30 m 5,667 ft / 1,727 m 343.91° 348.54° Asphalt 0 ft / 0 m 0 ft / 0 m

Approach Navaids

Runway Type Ident Frequency Range Bearing (true) Bearing (mag) Slope Elevation
35 Localiser ICTJ 111.70 MHz 18 nm / 33 km 343.90° 348.53° - 1,161 ft / 354 m (AMSL)
35 Glidescope ICTJ 111.70 MHz 10 nm / 19 km 343.91° 348.54° 3.00° 1,161 ft / 354 m (AMSL)

Map

Weather


0- 5 10 15 20 25 30 35+ Temperature / ° C

Clouds and Precipitation
Forecast for 2018-05-28 00:00 UTC. Updated an hour ago

Ground ~20,000 ft ~40,000 ft Winds

METAR

KCTJ 272355Z AUTO 11003KT 10SM CLR 25/18 A2993 RMK AO2 T02460181 10285 20246

TAF

Not found

Frequencies

Recorded 118.17 MHz AWOS 3
Clearance 121.60 MHz ATLANTA CLNC DEL
Unicom 122.70 MHz CTAF/UNICOM
Approach 121.00 MHz ATLANTA APP/DEP
Warning: Do not use this data for real-world aviation or navigation. No guarantee of current accuracy is given.